Location: Franzen
(48.6167°N, 15.3833°E)
Time: 12:44:16
(UTC+00:00)

Cosmos 1655 Rocket - Pass Details

Date: 06 August 2021
Orbit: 969 x 1007 km, 82.9° (Epoch: 25 September)

Event Time Altitude Azimuth Distance (km) Brightness Sun altitude
Rises 22:33:54 0° 249° (WSW) 3,727 6.9 -24.6°
Reaches altitude 10° 22:37:58 10° 274° (W) 2,786 6.5 -24.7°
Maximum altitude 22:41:06 14° 304° (NW) 2,518 6.6 -24.7°
Drops below altitude 10° 22:44:14 10° 334° (NNW) 2,795 7.3 -24.8°
Sets 22:48:21 0° 359° (N) 3,749 8.5 -24.9°
